Location: Orange Harbor Mobile Home Park
(26.6923°N, 81.7937°W)
Time: 07:58:45
(UTC+00:00)

Cosmos 1869 Rocket - Pass Details

Date: 19 September 2020
Orbit: 604 x 634 km, 82.5° (Epoch: 29 October)

Event Time Altitude Azimuth Distance (km) Brightness Sun altitude
Rises 10:20:21 0° 339° (NNW) 2,863 6.8 -12.9°
Reaches altitude 10° 10:22:48 10° 328° (NNW) 1,954 5.9 -12.4°
Maximum altitude 10:26:28 28° 270° (W) 1,151 4.4 -11.6°
Drops below altitude 10° 10:30:07 10° 211° (SSW) 1,941 5.8 -10.8°
Sets 10:32:33 0° 199° (SSW) 2,841 6.7 -10.2°
